Wind_Speed
29 28 27 26 24 22 22 22 21 21 19 17 16 16 15 14 13 14 14 13 12 12 12 11 12 12 11 11 11 10 10 9 7 7 7 6 5 5 6 6 6 7
30 29 28 28 25 24 23 23 23 22 21 19 18 16 16 15 15 15 16 16 14 13 13 13 13 13 14 13 12 12 12 11 9 8 8 8 7 6 6 6 6 7
31 31 30 29 28 26 24 24 24 24 22 21 20 18 17 17 18 17 18 18 16 15 14 14 14 15 16 16 14 13 13 11 9 9 9 9 7 6 6 7 7 7
32 31 31 30 29 28 26 25 25 24 23 22 21 19 18 18 19 19 19 19 18 16 15 14 15 17 17 18 16 14 12 11 9 9 11 12 9 7 7 7 7 7
33 32 31 31 30 29 29 28 28 26 24 23 22 21 20 20 20 20 20 20 18 17 16 14 15 18 18 19 18 15 12 11 9 8 10 12 9 7 7 7 7 8
35 33 32 31 31 30 30 31 30 29 27 26 25 24 24 23 22 21 22 21 19 18 18 16 15 17 19 19 18 16 14 12 10 9 11 11 10 9 8 8 8 8
36 35 33 32 32 32 32 32 31 30 29 29 28 27 27 26 24 24 24 23 20 20 19 18 16 16 18 19 18 17 16 13 12 12 12 12 12 11 11 10 9 8
38 36 34 33 33 33 33 33 32 32 32 31 31 30 30 29 27 27 27 25 23 23 21 20 18 17 18 20 19 19 18 15 14 15 13 13 13 13 13 12 11 10
38 38 36 35 35 34 34 33 33 35 35 33 33 33 33 31 29 29 29 27 26 25 23 22 20 18 19 21 20 20 18 16 16 17 15 14 14 14 13 12 12 11
39 39 38 37 36 35 35 34 35 37 37 35 34 35 34 33 32 32 31 28 28 28 26 24 22 20 20 21 21 21 19 17 18 18 15 15 15 14 13 13 13 13
39 39 39 38 37 36 35 35 36 37 37 36 36 35 35 35 34 35 34 32 30 30 28 26 25 23 21 22 23 22 20 18 19 18 16 15 15 15 14 14 15 15
38 38 39 39 38 37 34 35 37 37 35 36 37 37 37 38 38 38 37 35 32 31 29 29 28 25 22 23 24 23 20 19 19 19 17 17 17 16 16 15 16 16
37 37 37 37 38 37 35 35 38 37 35 36 38 38 39 40 41 41 39 38 35 33 31 31 31 28 24 24 24 23 20 19 19 19 19 19 18 17 17 16 16 18
35 35 35 35 36 36 36 37 40 37 35 36 38 38 39 42 43 43 42 40 38 35 33 33 32 30 26 25 25 23 21 19 19 21 21 20 19 18 18 18 17 18
31 27 27 27 27 29 31 33 38 39 35 36 40 40 39 41 43 44 44 42 39 36 35 35 34 31 27 26 26 24 22 20 20 21 22 20 19 18 19 19 19 18
27 20 19 21 22 24 25 25 30 36 35 33 35 38 40 39 40 41 41 40 39 38 37 37 36 33 27 25 26 25 22 21 20 22 22 21 20 20 19 19 19 19
25 19 18 21 22 22 25 23 22 26 29 27 27 32 37 38 37 37 36 35 38 40 39 37 36 34 27 25 27 25 23 22 20 20 21 21 20 20 20 19 18 18
23 20 18 20 21 21 25 26 22 21 26 29 30 31 33 36 38 37 33 33 36 39 39 36 36 33 27 25 28 25 22 22 21 21 22 22 20 19 19 19 18 18
20 19 17 18 21 23 25 24 21 23 27 30 31 29 28 32 37 37 36 35 37 38 38 36 35 32 26 25 28 25 21 21 21 24 25 23 21 19 18 18 18 18
18 18 17 17 19 23 24 21 19 22 24 23 22 23 25 27 29 33 38 39 39 38 37 35 34 32 27 25 28 28 23 19 21 24 25 24 22 20 18 19 19 18
18 18 18 17 18 20 21 19 18 19 20 16 15 20 24 23 24 31 37 39 39 39 37 36 36 33 29 27 30 31 25 21 22 24 25 24 23 22 21 21 19 18
20 20 19 17 16 18 18 18 18 18 19 17 16 19 22 22 27 34 36 36 38 38 37 37 36 34 30 27 30 30 24 21 22 24 24 25 24 23 23 21 20 21
21 21 20 18 17 18 17 16 16 16 16 18 18 19 20 21 26 31 33 35 38 38 38 36 33 31 29 28 29 28 24 23 24 24 24 25 25 24 24 22 22 23
20 20 20 18 17 18 16 14 14 14 15 17 17 15 15 16 20 25 28 31 33 35 36 34 30 29 29 29 29 28 24 23 24 24 25 27 27 26 24 23 23 25
19 19 19 17 15 15 14 13 14 16 16 16 14 12 13 14 15 17 19 21 25 29 31 32 31 29 30 31 30 28 23 19 20 23 24 27 29 26 22 23 25 26
18 18 18 16 14 13 13 13 14 15 14 13 12 11 11 12 13 12 13 17 23 24 25 28 27 27 30 31 27 23 19 17 19 22 23 25 26 24 22 24 26 27
Wind_Direction
226 226 227 229 227 224 224 224 225 226 224 220 219 221 218 210 205 199 201 208 208 210 213 211 207 200 197 208 213 210 213 212 206 216 221 213 213 226 239 247 248 250
227 227 227 228 228 226 224 224 226 227 228 226 220 216 215 209 204 201 199 203 208 211 212 211 209 207 205 210 217 218 220 220 210 213 223 215 203 214 233 242 250 258
227 227 228 227 228 227 225 224 226 228 229 229 225 218 214 210 209 209 205 204 208 210 211 213 213 213 211 209 215 217 217 218 209 208 226 229 211 204 218 228 241 254
226 227 228 228 228 228 228 227 228 229 227 227 228 223 213 210 214 219 217 212 212 213 210 211 216 219 216 213 217 219 214 214 209 205 223 233 226 214 214 220 230 243
227 227 228 229 229 228 229 230 230 231 227 225 229 226 218 218 223 224 222 219 219 218 213 209 213 218 219 219 220 219 214 213 214 220 227 230 231 233 229 226 230 237
227 227 227 229 230 230 231 233 234 233 228 226 229 228 225 229 233 227 224 226 225 220 215 211 209 213 218 222 221 218 217 216 222 232 228 222 225 234 236 236 238 244
227 227 227 228 230 232 234 235 237 236 232 231 232 231 232 235 238 233 232 236 229 218 217 215 213 215 218 221 221 219 219 222 231 236 227 218 220 223 228 237 245 253
227 228 228 229 230 233 235 237 239 238 237 236 235 236 238 240 241 237 237 239 231 222 221 217 218 224 221 220 221 221 221 223 232 236 225 219 223 224 229 237 245 255
227 229 229 231 231 233 235 236 239 240 240 240 238 238 240 241 242 240 239 240 234 229 225 218 223 229 223 219 219 220 222 224 230 233 224 219 225 230 236 243 251 260
228 229 230 232 232 233 235 236 238 241 243 242 239 238 241 242 241 241 242 241 235 232 227 221 225 229 223 219 219 220 222 223 227 229 224 222 227 231 238 245 252 259
228 229 231 232 233 233 234 236 239 242 244 243 240 239 241 242 240 241 242 240 236 234 230 224 224 227 225 220 218 220 222 222 226 228 226 227 231 233 237 243 250 255
230 230 231 233 234 234 232 234 240 242 240 241 242 241 241 242 242 243 243 241 238 236 233 227 224 226 226 220 216 220 223 224 226 227 227 230 234 237 241 246 252 255
231 232 233 233 234 235 232 234 243 243 235 236 245 245 241 243 244 244 244 243 242 240 236 228 224 225 224 219 216 220 224 226 225 226 228 230 232 238 244 249 253 255
232 233 233 231 232 235 234 236 244 244 234 234 244 246 243 245 246 244 245 244 243 242 236 228 223 222 220 218 216 219 224 225 224 226 230 231 232 239 244 248 251 252
229 226 225 222 223 228 230 234 241 243 235 234 243 246 244 244 245 245 245 243 240 238 232 226 223 219 217 216 216 219 222 222 225 229 231 230 233 239 244 249 252 249
222 215 211 211 213 218 222 226 234 239 237 234 238 243 242 239 238 239 240 238 236 234 230 227 222 217 214 216 217 221 222 221 226 231 229 229 234 240 245 249 250 247
218 211 208 212 213 215 219 222 225 233 234 229 230 237 240 238 234 231 230 231 232 231 230 230 223 216 215 216 218 221 221 219 225 230 230 233 238 242 249 250 246 245
214 210 207 212 212 213 219 223 225 227 227 227 233 241 243 240 236 233 228 225 228 231 233 232 224 216 216 217 216 219 221 221 227 232 232 233 237 244 249 248 243 242
208 204 203 207 208 214 222 224 227 229 227 231 238 242 243 241 238 237 233 228 229 233 235 233 224 217 217 218 217 217 220 228 237 238 234 232 236 244 247 243 240 240
198 195 199 200 201 213 223 223 226 232 233 234 233 232 237 238 235 238 238 236 236 237 236 229 219 217 221 223 221 218 223 244 253 241 235 235 236 239 243 240 238 236
189 188 197 200 198 207 217 217 221 233 238 234 222 226 235 236 236 241 244 242 240 241 236 224 217 225 232 230 225 222 229 254 254 235 232 238 236 236 242 241 235 234
187 186 191 195 197 203 208 209 214 223 229 226 218 222 231 236 242 246 246 243 239 237 231 223 224 234 236 231 227 225 232 250 242 228 232 238 236 239 244 242 240 243
187 186 187 189 196 204 207 210 212 212 217 220 217 218 225 235 245 248 246 244 239 235 231 229 229 231 230 229 229 228 236 244 235 229 236 239 239 244 244 243 246 252
189 190 190 189 194 202 206 207 206 205 211 216 216 216 219 228 242 247 245 244 242 239 237 234 230 226 227 230 230 232 240 241 233 233 241 241 240 244 244 245 248 254
192 195 194 191 191 196 198 198 202 207 210 211 210 214 218 221 230 237 237 239 241 240 238 237 234 229 230 234 236 238 240 233 228 236 242 239 240 243 243 244 250 260
194 196 195 190 189 191 192 195 204 207 207 207 209 210 217 223 225 224 226 239 244 239 236 241 242 236 236 239 239 237 232 226 231 237 235 235 240 240 235 240 255 271
Height
1527 1529 1531 1533 1536 1538 1539 1541 1542 1543 1544 1545 1546 1547 1548 1549 1550 1552 1553 1553 1554 1554 1554 1555 1555 1556 1557 1557 1558 1559 1559 1560 1561 1561 1560 1560 1561 1562 1562 1563 1563 1563
1524 1526 1529 1531 1533 1535 1537 1538 1540 1541 1542 1543 1544 1545 1546 1547 1548 1549 1550 1551 1551 1551 1552 1552 1552 1553 1553 1554 1555 1556 1557 1558 1559 1560 1559 1559 1559 1560 1561 1561 1562 1562
1521 1523 1526 1528 1530 1532 1534 1536 1537 1538 1540 1541 1541 1543 1544 1544 1545 1546 1547 1547 1548 1549 1549 1549 1550 1550 1550 1550 1551 1552 1554 1555 1556 1558 1559 1558 1557 1557 1558 1560 1560 1561
1518 1520 1523 1525 1528 1530 1532 1533 1534 1536 1537 1538 1539 1540 1541 1542 1542 1543 1544 1545 1545 1546 1546 1547 1548 1549 1549 1549 1549 1549 1551 1552 1554 1556 1557 1558 1557 1556 1556 1557 1558 1559
1515 1517 1520 1522 1524 1527 1528 1530 1531 1533 1534 1535 1536 1538 1539 1539 1540 1541 1541 1542 1543 1543 1543 1544 1545 1547 1548 1548 1548 1548 1548 1549 1551 1553 1555 1556 1556 1556 1555 1555 1556 1557
1511 1514 1516 1519 1521 1523 1525 1526 1528 1530 1531 1532 1533 1535 1535 1536 1537 1538 1538 1539 1540 1541 1541 1541 1542 1543 1544 1546 1547 1547 1547 1547 1548 1549 1551 1553 1554 1555 1555 1555 1554 1555
1508 1510 1513 1516 1518 1520 1521 1523 1525 1526 1527 1529 1530 1531 1531 1531 1533 1534 1534 1536 1537 1537 1538 1540 1540 1540 1541 1543 1544 1545 1545 1546 1546 1547 1548 1550 1552 1554 1554 1554 1553 1553
1505 1507 1509 1512 1514 1516 1518 1520 1521 1522 1523 1525 1526 1526 1526 1527 1528 1529 1530 1531 1533 1533 1535 1537 1538 1538 1539 1540 1542 1543 1543 1544 1545 1545 1546 1548 1550 1551 1552 1552 1552 1551
1501 1503 1506 1508 1510 1513 1515 1516 1518 1517 1518 1520 1521 1522 1522 1523 1525 1525 1526 1528 1529 1530 1531 1533 1535 1536 1537 1537 1539 1540 1541 1543 1544 1544 1545 1546 1548 1549 1550 1551 1550 1550
1497 1500 1502 1504 1507 1509 1511 1513 1513 1513 1514 1516 1517 1518 1518 1520 1521 1522 1523 1524 1525 1526 1528 1530 1532 1533 1534 1535 1536 1538 1539 1540 1542 1543 1544 1545 1547 1548 1548 1549 1549 1549
1493 1496 1498 1500 1503 1505 1507 1509 1509 1509 1510 1512 1514 1515 1515 1516 1517 1517 1518 1520 1521 1523 1525 1527 1529 1530 1532 1533 1534 1535 1537 1538 1539 1541 1542 1543 1545 1545 1546 1547 1547 1547
1489 1492 1495 1497 1499 1502 1504 1505 1505 1506 1506 1507 1510 1511 1511 1511 1512 1513 1514 1516 1518 1520 1522 1524 1525 1527 1529 1530 1532 1533 1535 1536 1537 1538 1539 1540 1542 1543 1544 1544 1545 1545
1485 1488 1491 1494 1496 1498 1500 1501 1501 1503 1503 1504 1506 1507 1508 1507 1508 1508 1509 1512 1514 1516 1518 1520 1522 1524 1526 1528 1530 1531 1532 1533 1535 1536 1536 1536 1538 1540 1541 1542 1543 1543
1482 1485 1488 1490 1492 1494 1496 1497 1497 1499 1500 1500 1501 1503 1503 1503 1504 1504 1505 1507 1510 1512 1514 1516 1518 1520 1522 1525 1527 1528 1529 1531 1532 1533 1533 1534 1535 1537 1539 1540 1541 1541
1479 1482 1485 1487 1489 1490 1492 1493 1493 1495 1497 1497 1496 1498 1499 1500 1500 1500 1501 1503 1506 1508 1510 1512 1514 1516 1518 1521 1523 1525 1526 1527 1529 1530 1531 1531 1532 1534 1536 1537 1538 1538
1476 1479 1481 1483 1485 1486 1487 1489 1489 1491 1493 1493 1493 1494 1496 1497 1498 1497 1498 1500 1502 1504 1506 1507 1510 1513 1515 1517 1520 1521 1523 1525 1526 1528 1529 1529 1530 1531 1533 1534 1535 1535
1473 1476 1478 1479 1481 1483 1484 1485 1487 1487 1489 1490 1491 1492 1494 1495 1496 1496 1497 1498 1499 1500 1502 1504 1506 1509 1512 1514 1516 1518 1520 1522 1524 1525 1526 1527 1527 1528 1529 1530 1531 1532
1471 1474 1475 1477 1479 1480 1481 1482 1484 1485 1486 1488 1488 1489 1491 1493 1494 1494 1495 1496 1496 1497 1499 1501 1504 1506 1509 1511 1513 1515 1518 1519 1521 1522 1523 1524 1525 1525 1526 1527 1528 1529
1468 1471 1472 1474 1476 1477 1478 1479 1481 1482 1483 1485 1487 1488 1489 1490 1490 1491 1492 1493 1493 1494 1496 1499 1501 1504 1506 1509 1512 1513 1515 1516 1517 1518 1519 1521 1522 1522 1523 1524 1525 1525
1465 1467 1469 1470 1472 1473 1474 1476 1477 1478 1480 1482 1484 1486 1487 1487 1487 1488 1489 1489 1490 1491 1494 1496 1498 1500 1504 1508 1510 1511 1513 1514 1515 1516 1517 1518 1519 1520 1520 1521 1521 1522
1461 1463 1465 1466 1468 1470 1471 1473 1474 1475 1477 1479 1480 1482 1484 1484 1484 1484 1485 1486 1488 1489 1491 1493 1495 1496 1500 1504 1507 1508 1510 1511 1511 1513 1514 1515 1516 1516 1517 1517 1518 1518
1458 1460 1462 1464 1466 1467 1468 1470 1472 1473 1474 1476 1477 1479 1480 1480 1479 1480 1481 1483 1485 1486 1487 1489 1491 1493 1496 1501 1503 1505 1507 1508 1508 1509 1511 1512 1512 1513 1514 1514 1515 1515
1455 1457 1460 1462 1464 1465 1466 1468 1469 1470 1472 1472 1474 1476 1477 1476 1475 1476 1478 1480 1481 1483 1484 1486 1488 1491 1494 1497 1500 1502 1504 1505 1506 1507 1507 1508 1509 1510 1511 1511 1512 1512
1452 1454 1457 1459 1460 1462 1464 1465 1466 1468 1469 1470 1471 1473 1474 1474 1473 1474 1475 1476 1477 1480 1482 1484 1486 1489 1492 1494 1497 1499 1501 1502 1503 1504 1504 1505 1506 1507 1508 1508 1509 1509
1450 1452 1454 1456 1458 1459 1461 1463 1464 1465 1466 1467 1469 1470 1471 1472 1472 1472 1473 1474 1475 1478 1480 1482 1485 1487 1489 1491 1494 1496 1497 1498 1500 1500 1501 1503 1504 1505 1506 1506 1506 1506
1447 1450 1452 1454 1456 1457 1459 1461 1462 1462 1463 1464 1466 1468 1468 1469 1469 1470 1471 1472 1474 1477 1479 1481 1483 1485 1487 1488 1491 1493 1494 1496 1497 1497 1499 1500 1501 1502 1503 1503 1503 1502